Starlink 1269

operational
NORAD ID: 45197 Int'l Des: 2020-012 Owner: SPXS Country: US Constellation: starlink
LEOCIRCULARSTARLINK_TYPE

Über Starlink 1269

Beschreibung wird geladen...

Live-Position

3D-Globus wird geladen...

Nächste Überflüge

Höhenverlauf

Altitude vs Time

uPlot chart will show altitude changes over time

Zweizeiliger Elementsatz

1 45197U 20012V 25258.97484625 .00001520 00000-0 12091-3 0 9992
2 45197 53.0549 110.9473 0001437 92.2824 267.8329 15.06399793308472
Epoch: 15. Sept. 2025 • Age: 12 hours

Aktueller Status

Höhe 552.0 km
Geschwindigkeit 7.59 km/s
Subsatellitenpunkt 49.62°N, 66.24°E
Startdatum 17. Feb. 2020
Alter 5.5 years
Typ internet

Technische Details

Klassifizierung Payload
Masse 260.00 kg
Trockenmasse 248.00 kg
Gesamtmasse 260.00 kg
Länge 0.20 m
Durchmesser 2.80 m
Spannweite 9.00 m
Form Box + pan
Hersteller SPXS
Bus-Typ Starlink
Phasenstatus In Orbit
Besitzer/Staat SPXS/US

Große Konstellationen

Loading constellations...